Location: Caltech
(34.1382°N, 118.1253°W)
Time: 08:01:48
(UTC-08:00)

Saudisat 1A - Visible Passes

Search period start: 26 November 2014 00:00
Search period end: 06 December 2014 00:00
Orbit: 595 x 610 km, 64.6° (Epoch: 26 November)

Date Brightness Start Highest point End Pass type
(mag) Time Alt. Az. Time Alt. Az. Time Alt. Az.
28 Nov 10.7 05:09:34 10° NNE 05:11:18 12° NE 05:13:01 10° ENE visible
29 Nov 10.2 05:20:03 10° N 05:23:28 21° NE 05:26:52 10° ESE visible
30 Nov 9.3 05:31:20 10° NNW 05:35:30 39° ENE 05:39:39 10° SE visible
01 Dec 8.1 05:42:58 10° NNW 05:47:25 79° ENE 05:51:50 10° SSE visible
02 Dec 10.5 04:17:52 14° NNE 04:19:24 16° NE 04:22:05 10° E visible
02 Dec 8.3 05:54:55 10° NW 05:59:13 50° WSW 06:03:28 10° S visible
03 Dec 9.8 04:30:06 23° NNE 04:31:29 28° NE 04:35:18 10° ESE visible
03 Dec 9.2 06:07:18 10° WNW 06:10:54 25° WSW 06:14:28 10° SSW visible
04 Dec 8.6 04:42:25 43° NNE 04:43:27 53° ENE 04:47:46 10° SE visible
04 Dec 10.0 18:42:02 10° S 18:43:12 17° SSE 18:43:12 17° SSE visible
05 Dec 7.9 04:54:48 66° WNW 04:55:17 75° WSW 04:59:41 10° SSE visible
05 Dec 9.3 18:53:19 10° SSW 18:55:42 32° SSW 18:55:42 32° SSW visible
